Weather Roundup
Issued by NWS Springfield, MO

Home | Current Version | Previous Version | Text Only | Print | Product List | Glossary On
Versions: 1 2 3 4 5 6 7 8 9 10 11 12 13 14 15 16 17 18 19 20 21 22 23 24 25 26 27 28 29 30 31 32 33 34 35 36 37 38 39 40 41 42 43 44 45 46 47 48 49 50
000
NZUS99 KSGF 191759
HRRSGF

HOURLY WEATHER
NATIONAL WEATHER SERVICE SPRINGFIELD MO
100 PM CDT SUN APR 19 2015

......SGF CWA......

CITY           SKY/WX    TMP DP  RH WIND       PRES   REMARKS
SPRINGFIELD    CLOUDY    65  52  62 W22G28    29.69F
6HR MIN TEMP:  52; 6HR MAX TEMP:  67;

JOPLIN         MOSUNNY   65  54  67 NW16G24   29.72F
6HR MIN TEMP:  53; 6HR MAX TEMP:  65;

WEST PLAINS    CLOUDY    70  58  65 W8        29.64F
6HR MIN TEMP:  59; 6HR MAX TEMP:  70; 6HR PCP:  0.07;

ROLLA          LGT RAIN  62  59  90 N6        29.60F
6HR MIN TEMP:  58; 6HR MAX TEMP:  62; 6HR PCP:  0.38;

OSAGE BEACH    CLOUDY    66  57  72 SW7       29.64F
BRANSON        PTSUNNY   68  48  49 NW12      29.70F

......SURROUNDING SGF CWA......

CITY           SKY/WX    TMP DP  RH WIND       PRES   REMARKS
CHANUTE        CLOUDY    61  54  77 NW7       29.71F
PARSONS        CLOUDY    60  55  83 NW10      29.73F
COFFEYVILLE    PTSUNNY   58  54  86 CALM      29.73S
EMPORIA        CLOUDY    63  52  67 VRB7      29.72F
SILOAM SPRINGS PTSUNNY   66  54  63 N8        29.74F
HARRISON AR    MOSUNNY   72  50  45 W14G22    29.69F
NEAR YELLVILLE CLOUDY    73 N/A N/A N10G16    29.65S

......KANSAS AND MISSOURI......

CITY           SKY/WX    TMP DP  RH WIND       PRES   REMARKS
KANSAS CTY INT CLOUDY    65  54  67 W12       29.67F
DOWNTOWN KC    CLOUDY    68  54  60 NW9       29.66F
COLUMBIA       CLOUDY    64  58  80 CALM      29.61F
SEDALIA        CLOUDY    66  57  72 W10       29.65F
ST JOSEPH      CLOUDY    62  54  74 W16       29.67F
ST LOUIS       LGT RAIN  64  59  83 E3        29.58F
SPIRIT OF STL  CLOUDY    67  63  87 CALM      29.56F
KIRKSVILLE     CLOUDY    69  59  70 S6        29.59F
WICHITA        PTSUNNY   65  52  62 NW8       29.75F
TOPEKA         CLOUDY    64  53  67 W12       29.70F
OLATHE         CLOUDY    64  52  64 W13G21    29.67F

......TENNESSEE......

CITY           SKY/WX    TMP DP  RH WIND       PRES   REMARKS
MEMPHIS        CLOUDY    69  63  81 W14G22    29.67R
NASHVILLE      CLOUDY    72  63  73 S12       29.62F

......ARKANSAS.......

CITY           SKY/WX    TMP DP  RH WIND       PRES   REMARKS
FAYETTEVILLE   MOSUNNY   69  54  58 SW9G17    29.72F
FT SMITH       SUNNY     74  53  48 W8        29.69F
LITTLE ROCK    PTSUNNY   77  56  48 SW12G20   29.71S

......OKLAHOMA.......

CITY           SKY/WX    TMP DP  RH WIND       PRES   REMARKS
TULSA          CLOUDY    66  52  60 N8        29.71F
PONCA CITY     MOSUNNY   66  50  56 VRB3      29.74F
MCALESTER      CLOUDY    71  56  58 N6        29.71F
OKLAHOMA CITY  MOSUNNY   70  49  47 NW8       29.75F

......IOWA............

CITY           SKY/WX    TMP DP  RH WIND       PRES   REMARKS
DES MOINES     CLOUDY    66  57  72 NE6       29.61F
QUAD CITIES    MOSUNNY   76  47  35 E10       29.59F

......ILLINOIS........

CITY           SKY/WX    TMP DP  RH WIND       PRES   REMARKS
QUINCY         CLOUDY    69  53  56 W8        29.58F
CHICAGO        PTSUNNY   66  38  35 E10       29.67F



USA.gov is the U.S. government's official web portal to all federal, state and local government web resources and services.